Location: Unspecified
(28.6444°N, 0.0000°E)
Time: 14:09:35
(UTC+00:00)

Cosmos 272 Rocket - Visible Passes

Search period start: 04 April 2026 00:00
Search period end: 14 April 2026 00:00
Orbit: 1179 x 1194 km, 74.0° (Epoch: 29 March)

Date Brightness Start Highest point End Pass type
(mag) Time Alt. Az. Time Alt. Az. Time Alt. Az.
6 Apr 8.0 05:18:54 10° SSE 05:25:12 31° E 05:31:27 10° NE visible
6 Apr 8.9 18:44:19 10° WNW 18:47:32 13° W 18:50:45 10° WSW visible
7 Apr 8.3 04:58:28 10° SSE 05:04:13 25° E 05:09:58 10° NE visible
8 Apr 8.4 04:38:12 10° SE 04:43:17 20° E 04:48:21 10° NE visible
9 Apr 8.5 04:18:12 10° SE 04:22:21 16° E 04:26:29 10° ENE visible
10 Apr 8.7 03:58:44 10° ESE 04:01:25 12° E 04:04:07 10° ENE visible
12 Apr 6.3 05:02:21 10° S 05:09:39 70° ESE 05:16:57 10° NNE visible
13 Apr 6.6 04:41:27 10° S 04:48:37 58° ESE 04:55:46 10° NNE visible
